Weather History for Wenatchee, WA

Change the Weather History Date:

Monday, February 18, 2013

  Actual Average Record
Temperature  
Mean Temperature 32 °F 32 °F  
Max Temperature 41 °F 40 °F 62 °F (1977)
Min Temperature 23 °F 24 °F 8 °F (1990)
Degree Days  
Heating Degree Days 33 33  
Month to date heating degree days 599 620  
Since 1 July heating degree days 4542 4877  
Cooling Degree Days 0 0  
Month to date cooling degree days 0 0  
Year to date cooling degree days 0 0  
Moisture  
Dew Point 25 °F    
Average Humidity 71    
Maximum Humidity 82    
Minimum Humidity 59    
Precipitation  
Precipitation 0.00 in 0.05 in 0.46 in (1999)
Month to date precipitation 0.03 0.95  
Year to date precipitation 1.49 2.82  
Snow  
Snow 0.00 in 0.20 in - ()
Month to date snowfall 0.1 4.4  
Since 1 July snowfall 43.9 44.8  
Snow Depth 0.00 in    
Sea Level Pressure  
Sea Level Pressure 29.95 in    
Wind  
Wind Speed 3 mph (WNW)    
Max Wind Speed 6 mph    
Max Gust Speed -    
Visibility 10 miles    
Events      
T = Trace of Precipitation, MM = Missing Value Source: NWS Daily Summary

Daily Weather History Graph

Daily Weather History Graph

Search for Another Location

Airport:

Trip Planner

Search our weather history database for the weather conditions in past years. The results will help you decide how hot, cold, wet, or windy it might be!

Date:

Astronomy

Feb. 18, 2013 Rise Set
Actual Time 7:00 AM PST 5:29 PM PST
Civil Twilight 6:29 AM PST 6:01 PM PST
Nautical Twilight 5:53 AM PST 6:36 PM PST
Astronomical Twilight 5:17 AM PST 7:12 PM PST
Moon 11:07 AM PST 1:56 AM PST
Length of Visible Light 11h 32m
Length of Day
10h 29m
First Quarter, 59% of the Moon is Illuminated
Feb 18
First Quarter
Feb 25
Full
Mar 4
Last Quarter
Mar 11
New
Mar 19
First Quarter

Hourly Weather History & Observations

Time (PST) Temp. Windchill Dew Point Humidity Pressure Visibility Wind Dir Wind Speed Gust Speed Precip Events Conditions
12:55 AM 30.9 °F 26.2 °F 23.0 °F 72% 30.09 in 10.0 mi West 4.6 mph - N/A   Clear
1:55 AM 30.0 °F 25.2 °F 21.9 °F 72% 30.09 in 10.0 mi NNW 4.6 mph - N/A   Clear
2:55 AM 30.9 °F 27.5 °F 23.0 °F 72% 30.07 in 10.0 mi NW 3.5 mph - N/A   Clear
4:55 AM 28.9 °F 25.2 °F 23.0 °F 78% 30.06 in 10.0 mi NW 3.5 mph - N/A   Clear
5:55 AM 28.9 °F - 23.0 °F 78% 30.05 in 10.0 mi Calm Calm - N/A   Partly Cloudy
6:55 AM 28.9 °F - 21.9 °F 75% 30.03 in 10.0 mi Calm Calm - N/A   Partly Cloudy
7:55 AM 28.9 °F - 24.1 °F 82% 30.03 in 10.0 mi Calm Calm - N/A   Scattered Clouds
8:55 AM 30.9 °F - 25.0 °F 79% 30.02 in 10.0 mi Calm Calm - N/A   Overcast
9:55 AM 32.0 °F 27.5 °F 25.0 °F 75% 30.01 in 10.0 mi NW 4.6 mph - N/A   Overcast
10:55 AM 33.1 °F 30.0 °F 25.0 °F 72% 30.00 in 10.0 mi West 3.5 mph - N/A   Overcast
11:55 AM 35.1 °F - 25.0 °F 67% 29.96 in 10.0 mi Calm Calm - N/A   Clear
12:55 PM 37.0 °F - 24.1 °F 59% 29.93 in 10.0 mi North - - N/A   Clear
1:55 PM 37.9 °F 35.5 °F 25.0 °F 60% 29.92 in 10.0 mi WSW 3.5 mph - N/A   Clear
2:55 PM 39.0 °F 36.8 °F 26.1 °F 60% 29.91 in 10.0 mi West 3.5 mph - N/A   Partly Cloudy
3:55 PM 39.0 °F 34.8 °F 26.1 °F 60% 29.89 in 10.0 mi West 5.8 mph - N/A   Overcast
4:55 PM 37.9 °F - 26.1 °F 62% 29.88 in 10.0 mi Calm Calm - N/A   Overcast
5:55 PM 37.0 °F 34.5 °F 27.0 °F 67% 29.86 in 10.0 mi West 3.5 mph - N/A   Overcast
6:55 PM 35.1 °F - 27.0 °F 72% 29.86 in 10.0 mi Calm Calm - N/A   Overcast
7:55 PM 35.1 °F - 27.0 °F 72% 29.84 in 10.0 mi Calm Calm - N/A   Overcast
8:55 PM 33.1 °F - 26.1 °F 75% 29.83 in 10.0 mi Calm Calm - N/A   Overcast
9:55 PM 33.1 °F - 25.0 °F 72% 29.82 in 10.0 mi Calm Calm - N/A   Scattered Clouds
10:55 PM 30.0 °F - 24.1 °F 79% 29.82 in 10.0 mi Calm Calm - N/A   Mostly Cloudy
11:55 PM 30.0 °F - 24.1 °F 79% 29.81 in 10.0 mi Calm Calm - N/A   Scattered Clouds